Change the Weather History Date:

Monday, November 11, 2013

  Actual Average (KTVC) Record (KTVC)
Temperature  
Mean Temperature 34 °F 39 °F  
Max Temperature 40 °F 46 °F 69 °F (1915)
Min Temperature 28 °F 32 °F 15 °F (1985)
Degree Days  
Heating Degree Days 31 26  
Month to date heating degree days 265  
Since 1 July heating degree days 1052  
Moisture  
Dew Point 26 °F    
Average Humidity 79    
Maximum Humidity 97    
Minimum Humidity 62    
Precipitation  
Precipitation 0.00 in 0.09 in 1.16 in (1982)
Month to date precipitation 1.02  
Year to date precipitation 28.88  
Sea Level Pressure  
Sea Level Pressure 30.13 in    
Wind  
Wind Speed 7 mph (WNW)    
Max Wind Speed 17 mph    
Max Gust Speed 26 mph    
Visibility 7 miles    
Events Rain , Snow    
T = Trace of Precipitation, MM = Missing Value Source: NWS Daily Summary

Daily Weather History Graph

Daily Weather History Graph

Search for Another Location

Airport or City:

Trip Planner

Search our weather history database for the weather conditions in past years. The results will help you decide how hot, cold, wet, or windy it might be!

Date:

Astronomy

Nov. 11, 2013 Rise Set
Actual Time 7:33 AM EST 5:15 PM EST
Civil Twilight 7:01 AM EST 5:47 PM EST
Nautical Twilight 6:26 AM EST 6:22 PM EST
Astronomical Twilight 5:52 AM EST 6:57 PM EST
Moon 2:10 PM EST (11/11) 1:01 AM EST (11/11)
Length of Visible Light 10h 45m
Length of Day
9h 42m
Waxing Gibbous, 66% of the Moon is Illuminated
Nov 11
Waxing Gibbous
Nov 17
Full
Nov 25
Last Quarter
Dec 2
New
Dec 9
First Quarter

Hourly Weather History & Observations

Time (EST) Temp. Windchill Dew Point Humidity Pressure Visibility Wind Dir Wind Speed Gust Speed Precip Events Conditions
12:14 AM 38.5 °F 35.0 °F 32.0 °F 78% 30.07 in 10.0 mi South 4.6 mph - N/A   Mostly Cloudy
12:34 AM 38.8 °F 34.6 °F 32.0 °F 76% 30.06 in 10.0 mi South 5.8 mph - N/A   Overcast
12:55 AM 39.2 °F 37.0 °F 32.0 °F 75% 30.06 in 10.0 mi South 3.5 mph - N/A   Overcast
1:14 AM 39.4 °F - 32.2 °F 75% 30.05 in 10.0 mi Calm Calm - N/A   Overcast
1:34 AM 40.1 °F 34.1 °F 32.7 °F 75% 30.04 in 10.0 mi South 9.2 mph 16.1 mph N/A   Overcast
1:55 AM 39.2 °F 34.2 °F 35.8 °F 88% 30.04 in 4.0 mi WSW 6.9 mph - N/A   Overcast
2:14 AM 38.8 °F 34.6 °F 35.6 °F 88% 30.04 in 5.0 mi SW 5.8 mph 16.1 mph N/A   Overcast
2:34 AM 38.3 °F 34.8 °F 35.2 °F 89% 30.03 in 5.0 mi SSW 4.6 mph - N/A   Overcast
2:55 AM 38.3 °F 33.9 °F 35.6 °F 90% 30.03 in 4.0 mi SSW 5.8 mph - N/A   Unknown
3:14 AM 37.8 °F 31.8 °F 35.6 °F 92% 30.02 in 4.0 mi SW 8.1 mph 16.1 mph N/A Snow Light Snow
3:35 AM 37.4 °F 30.8 °F 35.6 °F 93% 30.01 in 5.0 mi SSW 9.2 mph - N/A Snow Light Snow
3:54 AM 36.3 °F 30.8 °F 34.2 °F 92% 30.00 in 4.0 mi SSW 6.9 mph 16.1 mph N/A Snow Light Snow
4:14 AM 34.7 °F 30.6 °F 33.3 °F 94% 29.99 in 3.0 mi South 4.6 mph - N/A Snow Light Snow
4:35 AM 34.0 °F 31.0 °F 32.9 °F 96% 29.98 in 2.5 mi South 3.5 mph - N/A Snow Light Snow
4:54 AM 33.8 °F - 32.5 °F 95% 29.98 in 2.5 mi Calm Calm - N/A Snow Light Snow
5:14 AM 34.3 °F 31.4 °F 33.4 °F 97% 29.97 in 5.0 mi SSE 3.5 mph - N/A Rain Light Rain
5:35 AM 37.6 °F 30.5 °F 36.7 °F 97% 29.97 in 7.0 mi SSW 10.4 mph 16.1 mph N/A Rain Light Rain
5:54 AM 38.3 °F 33.9 °F 36.7 °F 94% 29.97 in 4.0 mi SW 5.8 mph 18.4 mph N/A Rain Light Rain
6:14 AM 38.3 °F 33.2 °F 36.0 °F 91% 29.97 in 7.0 mi WSW 6.9 mph 20.7 mph N/A Rain Light Rain
6:35 AM 37.4 °F 32.8 °F 34.9 °F 91% 29.97 in 3.0 mi West 5.8 mph - N/A Snow Light Snow
6:54 AM 37.8 °F 33.3 °F 35.8 °F 93% 29.97 in 4.0 mi West 5.8 mph - N/A   Overcast
7:14 AM 38.3 °F 33.9 °F 35.6 °F 90% 29.97 in 7.0 mi West 5.8 mph 17.3 mph N/A Rain Light Rain
7:35 AM 34.2 °F 25.7 °F 32.0 °F 92% 29.98 in 1.8 mi NNW 11.5 mph 18.4 mph N/A Snow Light Snow
7:54 AM 33.1 °F 24.4 °F 32.0 °F 96% 30.00 in 1.5 mi NW 11.5 mph 17.3 mph N/A Snow Light Snow
8:14 AM 32.7 °F 23.9 °F 31.6 °F 96% 30.02 in 0.8 mi NW 11.5 mph 23.0 mph N/A Snow Light Snow
8:35 AM 32.0 °F 24.8 °F 30.6 °F 94% 30.03 in 2.5 mi NW 8.1 mph 20.7 mph N/A Snow Light Snow
8:54 AM 31.8 °F 23.3 °F 29.1 °F 90% 30.05 in 3.0 mi NNW 10.4 mph 19.6 mph N/A Snow Light Snow
9:14 AM 31.1 °F 23.1 °F 28.8 °F 91% 30.06 in 1.2 mi NW 9.2 mph 17.3 mph N/A Snow Light Snow
9:35 AM 30.7 °F 22.0 °F 28.6 °F 92% 30.07 in 1.5 mi NW 10.4 mph 17.3 mph N/A Snow Light Snow
9:54 AM 30.2 °F 21.9 °F 27.3 °F 89% 30.08 in 5.0 mi NW 9.2 mph - N/A Snow Light Snow
10:14 AM 30.2 °F 21.9 °F 26.8 °F 87% 30.08 in 4.0 mi NNW 9.2 mph - N/A Snow Light Snow
10:35 AM 30.2 °F 23.4 °F 26.6 °F 86% 30.09 in 4.0 mi NNW 6.9 mph - N/A Snow Light Snow
10:54 AM 30.0 °F 21.1 °F 25.0 °F 82% 30.09 in 7.0 mi NNW 10.4 mph 18.4 mph N/A Snow Light Snow
11:14 AM 29.5 °F 20.4 °F 24.4 °F 81% 30.11 in 4.0 mi NW 10.4 mph - N/A Snow Light Snow
11:35 AM 29.7 °F 26.1 °F 23.5 °F 78% 30.12 in 10.0 mi NW 3.5 mph - N/A   Overcast
11:54 AM 30.0 °F 25.2 °F 21.4 °F 70% 30.12 in 10.0 mi NNW 4.6 mph - N/A   Overcast
12:14 PM 30.0 °F 21.1 °F 21.0 °F 69% 30.12 in 10.0 mi NW 10.4 mph 16.1 mph N/A   Overcast
12:35 PM 30.6 °F 24.7 °F 20.5 °F 66% 30.12 in 10.0 mi NW 5.8 mph 19.6 mph N/A   Overcast
12:54 PM 30.2 °F 22.6 °F 20.5 °F 67% 30.12 in 10.0 mi WNW 8.1 mph 18.4 mph N/A   Overcast
1:14 PM 30.2 °F 24.3 °F 22.5 °F 73% 30.13 in 7.0 mi WNW 5.8 mph - N/A Snow Light Snow
1:34 PM 29.8 °F 23.9 °F 22.6 °F 75% 30.13 in 4.0 mi NW 5.8 mph - N/A Snow Light Snow
1:54 PM 30.7 °F 21.4 °F 19.8 °F 64% 30.13 in 10.0 mi NW 11.5 mph 18.4 mph N/A   Overcast
2:14 PM 29.8 °F 21.5 °F 21.2 °F 70% 30.15 in 2.5 mi NNW 9.2 mph 21.9 mph N/A Snow Light Snow
2:34 PM 28.9 °F 22.8 °F 24.3 °F 83% 30.15 in 7.0 mi NW 5.8 mph - N/A Snow Light Snow
2:54 PM 29.7 °F 20.7 °F 23.0 °F 76% 30.15 in 10.0 mi NW 10.4 mph - N/A   Overcast
3:14 PM 30.0 °F 24.1 °F 21.7 °F 71% 30.16 in 10.0 mi WNW 5.8 mph - N/A Snow Light Snow
3:34 PM 30.2 °F 23.4 °F 21.4 °F 70% 30.17 in 10.0 mi NW 6.9 mph 16.1 mph N/A   Overcast
3:54 PM 29.5 °F 21.1 °F 22.8 °F 76% 30.18 in 3.0 mi WNW 9.2 mph 24.2 mph N/A Snow Light Snow
4:14 PM 29.1 °F 24.1 °F 22.1 °F 75% 30.18 in 4.0 mi WNW 4.6 mph 19.6 mph N/A Snow Light Snow
4:34 PM 28.8 °F 18.4 °F 21.9 °F 76% 30.18 in 7.0 mi NW 12.7 mph 20.7 mph N/A   Overcast
4:54 PM 29.7 °F 20.1 °F 22.1 °F 73% 30.19 in 10.0 mi WNW 11.5 mph 20.7 mph N/A   Overcast
5:14 PM 28.4 °F 21.2 °F 24.6 °F 86% 30.20 in 1.2 mi NW 6.9 mph - N/A Snow Light Snow
5:34 PM 28.8 °F 23.7 °F 23.9 °F 82% 30.21 in 7.0 mi West 4.6 mph - N/A   Overcast
5:54 PM 29.3 °F 23.2 °F 22.8 °F 77% 30.22 in 10.0 mi NNW 5.8 mph - N/A   Overcast
6:15 PM 29.1 °F 20.0 °F 21.7 °F 74% 30.23 in 4.0 mi WNW 10.4 mph 23.0 mph N/A Snow Light Snow
6:34 PM 28.9 °F 20.4 °F 20.7 °F 71% 30.24 in 10.0 mi NNW 9.2 mph 18.4 mph N/A   Overcast
6:54 PM 29.3 °F 18.6 °F 18.9 °F 65% 30.25 in 10.0 mi NW 13.8 mph 20.7 mph N/A   Overcast
7:14 PM 29.1 °F 17.1 °F 19.8 °F 68% 30.26 in 10.0 mi NW 17.3 mph 26.5 mph N/A Snow Light Snow
7:34 PM 28.8 °F 20.2 °F 17.2 °F 62% 30.27 in 10.0 mi NW 9.2 mph 20.7 mph N/A   Overcast
7:54 PM 28.6 °F 20.7 °F 17.6 °F 64% 30.28 in 10.0 mi NW 8.1 mph 20.7 mph N/A   Overcast
8:14 PM 28.4 °F 20.4 °F 16.7 °F 62% 30.29 in 10.0 mi NW 8.1 mph 19.6 mph N/A   Overcast
8:34 PM 28.4 °F 19.1 °F 18.5 °F 66% 30.29 in 10.0 mi NW 10.4 mph 19.6 mph N/A   Overcast
8:55 PM 28.4 °F 19.1 °F 18.3 °F 66% 30.30 in 10.0 mi NW 10.4 mph - N/A   Overcast
9:14 PM 28.4 °F 21.2 °F 18.5 °F 66% 30.31 in 10.0 mi NW 6.9 mph 19.6 mph N/A Snow Light Snow
9:34 PM 28.8 °F 20.9 °F 18.3 °F 65% 30.31 in 10.0 mi NW 8.1 mph 23.0 mph N/A   Overcast
9:54 PM 28.4 °F 19.1 °F 18.3 °F 66% 30.32 in 10.0 mi NW 10.4 mph - N/A   Overcast
10:14 PM 28.8 °F 19.0 °F 18.5 °F 66% 30.33 in 10.0 mi NW 11.5 mph 23.0 mph N/A   Overcast
10:34 PM 28.9 °F 23.9 °F 18.5 °F 65% 30.33 in 10.0 mi NW 4.6 mph - N/A   Overcast
10:55 PM 29.1 °F 21.3 °F 18.5 °F 65% 30.33 in 10.0 mi NW 8.1 mph - N/A   Overcast
11:14 PM 29.3 °F 18.6 °F 18.9 °F 65% 30.35 in 7.0 mi NNW 13.8 mph 23.0 mph N/A Snow Light Snow
11:34 PM 29.1 °F 19.4 °F 18.9 °F 66% 30.35 in 10.0 mi NNW 11.5 mph 18.4 mph N/A   Overcast
11:55 PM 29.1 °F 20.0 °F 20.1 °F 69% 30.36 in 5.0 mi NNW 10.4 mph - N/A Snow Light Snow